Location: Deardoffs Mills (historical)
(40.6353°N, 81.5590°W)
Time: 14:52:37
(UTC+00:00)

Envisat - Visible Passes

Search period start: 29 September 2022 00:00
Search period end: 09 October 2022 00:00
Orbit: 764 x 765 km, 98.2° (Epoch: 28 September)

Date Brightness Start Highest point End Pass type
(mag) Time Alt. Az. Time Alt. Az. Time Alt. Az.
29 Sep 3.0 09:51:07 10° NNE 09:56:14 89° ESE 10:01:18 10° SSW visible
30 Sep 4.3 09:14:25 10° NNE 09:19:12 39° E 09:23:55 10° SSE visible
01 Oct 5.6 08:38:35 10° NE 08:41:58 18° E 08:45:19 10° SE visible
01 Oct 3.1 10:16:20 10° N 10:21:15 52° WNW 10:26:10 10° SSW visible
02 Oct 3.2 09:39:17 10° NNE 09:44:23 70° ESE 09:49:25 10° S visible
03 Oct 4.7 09:02:47 10° NE 09:07:16 31° E 09:11:43 10° SSE visible
03 Oct 3.8 10:41:47 10° N 10:46:12 31° WNW 10:50:37 10° SW visible
04 Oct 5.8 08:27:30 10° ENE 08:29:59 14° E 08:32:27 10° ESE visible
04 Oct 2.9 10:04:24 10° N 10:09:27 68° WNW 10:14:28 10° SSW visible
05 Oct 3.7 09:27:30 10° NNE 09:32:29 54° E 09:37:26 10° S visible
06 Oct 5.1 08:51:15 10° NE 08:55:20 24° E 08:59:23 10° SSE visible
06 Oct 3.5 10:29:44 10° N 10:34:26 39° WNW 10:39:07 10° SW visible
07 Oct 6.1 08:17:46 10° E 08:17:58 10° E 08:18:11 10° E visible
07 Oct 2.9 09:52:30 10° NNE 09:57:37 87° WNW 10:02:41 10° SSW visible
08 Oct 4.2 09:15:47 10° NNE 09:20:35 41° E 09:25:22 10° SSE visible
08 Oct 4.1 10:55:21 10° NNW 10:59:19 23° WNW 11:03:16 10° WSW visible
